Wind_Speed
30 30 31 32 34 35 35 36 35 37 37 35 35 35 36 37 38 38 39 38 38 38 39 38 38 38 38 38 37 37 37 37 36 36 35 34 34 34 35 35 34 34 34
28 28 30 32 34 36 37 39 39 38 38 39 37 37 37 37 38 39 39 39 39 40 40 40 40 40 40 40 37 36 36 37 37 37 35 33 33 34 35 35 34 34 33
25 27 31 33 34 35 37 40 39 39 38 38 38 38 38 38 38 38 39 39 40 41 41 41 41 41 41 41 40 39 38 37 38 37 35 34 33 34 34 34 33 33 33
26 29 31 32 33 34 35 37 37 37 38 38 39 39 39 38 38 39 39 40 41 41 41 41 42 41 41 41 40 40 39 39 38 37 36 35 35 34 32 32 33 33 33
26 28 29 30 31 32 34 35 36 37 37 37 38 38 38 38 38 38 39 39 40 40 41 42 42 42 42 41 41 41 41 40 39 39 38 37 36 34 32 31 32 32 32
25 27 29 30 31 33 34 35 37 38 38 39 39 39 39 38 38 38 38 39 39 40 41 42 42 42 43 43 43 43 43 43 42 42 41 39 38 36 34 32 31 31 32
27 29 30 30 31 32 34 36 36 37 38 39 40 40 41 40 40 39 39 39 40 40 41 43 43 43 44 44 45 45 45 45 44 43 42 41 40 37 35 33 32 31 31
28 28 28 28 29 32 34 35 36 37 37 38 39 40 41 41 42 42 42 42 42 42 43 44 44 44 44 45 45 46 45 45 43 43 42 41 39 37 35 33 32 31 30
26 27 29 31 33 34 35 36 36 37 37 38 39 40 41 41 42 42 43 43 44 44 44 44 44 44 45 44 44 43 42 42 42 41 40 39 37 35 33 33 32 31 31
30 32 33 34 35 35 36 38 38 37 37 37 38 38 40 40 41 42 42 43 43 43 43 43 43 43 42 41 40 39 39 39 38 37 37 36 35 33 31 30 29 28 28
33 34 34 35 35 36 38 39 39 39 38 38 37 37 37 38 39 40 40 41 41 41 41 40 40 40 38 37 36 36 35 34 34 33 32 31 31 29 28 28 26 25 24
35 36 37 37 37 37 38 39 39 39 39 38 37 36 35 36 37 37 38 38 38 37 36 36 36 35 34 33 32 31 32 32 30 29 29 29 29 29 28 27 25 24 23
37 38 39 39 39 38 38 39 39 39 39 38 37 35 34 34 35 35 35 35 34 33 32 31 31 30 30 29 28 28 28 27 26 25 25 26 26 26 25 24 24 23 22
40 41 41 42 42 41 40 40 39 39 39 38 37 35 34 33 34 33 33 32 30 28 28 27 27 26 26 25 24 24 24 23 24 24 23 24 24 24 22 22 22 22 21
43 44 45 45 45 44 44 42 41 40 39 38 37 35 34 33 32 31 30 29 27 26 24 24 23 22 21 21 20 20 21 22 23 23 23 23 22 22 21 20 20 19 18
47 48 49 49 49 48 47 45 43 41 40 38 36 35 34 33 31 29 28 27 25 23 21 20 19 17 17 17 18 18 18 19 21 21 20 20 19 19 18 18 17 17 16
53 53 54 53 52 51 50 49 46 43 41 39 37 35 33 32 30 28 26 25 23 21 20 17 16 15 15 15 15 14 16 16 15 17 17 17 16 16 15 14 14 14 13
58 58 58 58 57 55 53 51 49 45 42 40 37 35 33 31 30 27 25 23 21 19 17 15 15 14 13 13 13 13 13 13 13 14 14 13 12 12 12 12 11 11 12
62 62 62 62 61 60 57 54 51 47 43 40 38 35 33 31 29 26 24 21 20 17 15 13 12 12 11 10 10 10 11 12 12 12 11 11 10 10 9 9 9 9 9
64 64 64 64 63 61 59 55 51 48 44 40 38 35 32 31 29 26 23 21 19 17 15 13 11 10 9 9 8 9 10 11 10 10 10 10 10 9 9 9 8 8 8
68 68 67 66 65 62 60 56 52 49 46 42 39 36 33 31 28 25 23 21 19 17 15 13 11 10 9 9 8 9 9 9 9 9 10 9 9 9 8 8 8 8 8
70 70 69 66 63 60 58 54 52 49 46 43 40 38 35 31 28 25 24 22 20 18 16 14 12 10 9 8 9 9 9 9 8 9 9 9 9 8 8 8 7 8 8
69 67 64 60 57 55 54 52 50 48 47 45 42 39 36 32 29 26 24 22 21 19 16 15 13 11 10 10 10 10 10 9 9 9 9 9 9 9 8 8 8 8 8
61 57 55 53 51 50 50 49 48 47 47 47 43 40 36 33 31 28 25 23 21 19 18 16 15 14 12 12 12 12 11 11 10 10 10 10 9 9 9 9 9 9 9
50 48 48 47 46 45 45 46 47 46 45 44 43 41 38 35 32 29 27 25 23 21 19 18 17 16 15 15 15 14 13 12 11 11 11 10 10 10 10 10 10 10 9
43 45 45 44 43 43 41 42 43 44 43 43 44 41 38 36 34 31 29 27 25 23 21 20 19 18 17 16 16 15 14 13 12 12 12 11 11 11 11 11 11 10 11
Wind_Direction
292 296 299 300 299 298 296 293 289 289 286 284 284 282 279 278 277 277 276 277 277 276 276 275 276 276 277 277 279 280 281 282 283 284 286 286 284 284 281 279 275 273 270
292 296 300 300 300 298 296 295 292 291 288 287 285 282 279 277 276 276 277 277 277 277 276 277 278 280 279 279 278 281 282 281 283 283 283 283 282 282 281 278 276 273 268
293 296 296 296 296 295 294 294 293 293 291 289 287 285 282 280 278 277 277 277 277 278 278 279 280 281 282 283 282 282 283 284 284 282 282 283 282 280 281 279 276 270 266
291 293 295 296 297 296 295 293 294 294 293 291 289 287 285 282 280 279 278 278 279 279 280 280 280 281 282 283 282 282 283 282 283 282 283 285 283 281 278 277 274 270 267
289 293 297 300 300 299 297 295 294 293 292 292 291 289 287 286 284 282 281 280 279 280 280 282 281 281 282 282 282 282 282 281 282 282 282 282 281 280 278 274 271 270 267
295 297 300 303 301 298 296 295 295 294 292 291 290 289 288 287 286 285 283 282 281 281 281 282 283 283 283 282 282 281 280 280 280 280 279 278 277 277 276 274 271 269 267
303 303 304 304 302 301 299 298 296 295 293 290 288 287 286 286 285 284 284 284 283 283 283 283 283 282 282 281 281 280 279 278 277 277 277 275 274 272 271 271 269 267 264
308 309 310 311 312 310 307 305 303 299 296 292 290 287 285 284 284 284 284 284 284 284 284 285 284 283 282 281 280 278 278 276 275 274 273 272 271 269 269 269 268 266 264
315 317 318 320 320 318 315 314 312 307 303 298 294 291 287 285 285 284 284 284 284 284 284 284 283 283 283 281 279 277 276 275 273 271 270 270 268 266 266 266 266 264 262
319 320 320 320 320 319 317 316 315 313 310 306 300 295 291 288 287 286 286 286 286 286 285 284 283 283 282 280 278 275 274 272 271 269 267 265 263 262 263 263 263 263 260
316 316 316 317 317 317 316 315 315 314 313 312 308 302 297 292 290 288 287 287 286 287 286 285 284 282 281 279 277 274 271 268 267 264 260 260 258 258 259 259 260 260 257
313 313 313 313 313 313 312 312 312 313 314 313 311 307 302 297 294 292 290 288 287 288 287 286 285 282 280 278 274 271 269 266 263 258 254 253 255 255 254 254 256 255 255
307 307 307 307 307 308 308 308 309 310 311 311 310 307 304 301 298 295 293 291 290 289 287 286 286 282 280 276 272 267 263 261 255 250 249 250 251 250 249 250 252 254 255
302 302 303 304 305 306 306 306 306 307 308 309 308 307 304 303 301 298 295 292 291 290 287 288 288 283 278 274 269 263 259 256 251 246 247 250 250 246 243 247 252 254 255
300 300 301 301 302 303 304 304 304 304 305 305 306 304 303 302 301 300 297 293 292 290 289 291 288 284 277 271 267 263 257 253 251 247 248 249 249 243 246 249 251 251 254
296 296 297 297 298 299 300 301 301 301 302 302 302 302 300 299 299 298 298 295 292 291 290 292 289 284 277 269 264 258 253 250 247 244 246 247 245 246 245 244 246 251 256
294 295 295 296 296 297 297 297 297 297 298 298 298 298 298 296 296 295 293 293 291 290 289 287 283 283 278 267 260 254 247 244 237 237 238 236 237 238 238 242 248 251 256
294 294 294 294 294 293 293 293 292 292 292 292 292 292 293 292 291 290 288 287 286 286 284 283 280 280 275 264 254 245 242 238 235 233 232 228 228 233 236 238 242 251 259
292 291 291 290 290 289 289 288 287 286 286 285 285 285 285 286 284 284 282 279 279 279 279 278 275 272 271 265 251 242 234 227 227 227 222 216 216 220 226 234 241 249 257
289 288 288 288 288 287 285 283 281 280 279 278 277 276 276 277 277 277 273 270 270 270 270 269 267 268 264 254 241 233 223 216 212 210 208 210 213 219 225 233 241 251 264
292 291 290 290 288 285 281 279 276 273 271 270 268 267 266 267 267 267 264 261 261 262 261 258 257 258 248 236 228 224 217 211 206 205 204 206 212 218 225 234 244 257 272
296 294 293 291 289 285 280 276 272 267 263 262 259 257 257 257 257 256 254 252 253 254 252 250 247 241 232 224 216 215 212 207 202 200 203 208 215 221 229 238 250 263 278
297 296 294 292 290 285 278 273 268 262 255 253 252 250 249 248 246 246 244 244 245 246 244 240 235 228 222 216 212 212 211 206 203 207 212 216 220 227 235 246 257 269 282
297 296 296 294 290 285 278 272 264 257 252 248 245 245 244 241 238 236 235 235 237 236 235 232 227 221 217 213 210 210 211 210 212 217 221 225 231 237 244 252 262 273 287
298 298 298 296 293 287 278 269 262 255 250 245 240 239 236 232 229 228 227 228 229 228 227 224 219 215 215 213 211 212 215 219 223 227 229 233 238 245 251 257 266 278 291
301 302 301 298 295 290 280 269 259 254 249 241 235 233 229 224 222 221 220 222 224 222 220 218 216 215 214 213 213 215 219 223 226 230 235 239 243 249 254 261 269 279 288
Height
5889 5888 5885 5882 5878 5875 5872 5870 5866 5864 5861 5857 5857 5856 5855 5854 5852 5850 5849 5849 5848 5847 5845 5844 5842 5840 5839 5838 5838 5837 5836 5836 5834 5833 5833 5833 5831 5830 5829 5827 5827 5827 5827
5884 5883 5880 5877 5873 5868 5864 5860 5857 5855 5852 5849 5848 5847 5846 5844 5843 5842 5840 5839 5838 5837 5835 5833 5832 5830 5829 5828 5827 5827 5826 5826 5824 5824 5823 5824 5823 5821 5819 5818 5817 5818 5818
5879 5877 5874 5871 5867 5862 5858 5852 5848 5845 5843 5841 5839 5837 5836 5835 5834 5832 5831 5829 5828 5826 5824 5823 5822 5821 5820 5818 5818 5817 5816 5816 5815 5814 5813 5813 5813 5813 5812 5809 5809 5809 5809
5872 5870 5867 5864 5860 5856 5851 5846 5842 5838 5835 5832 5830 5828 5826 5825 5824 5823 5821 5819 5818 5816 5815 5813 5812 5811 5810 5809 5808 5806 5806 5807 5806 5805 5804 5804 5803 5803 5803 5802 5801 5800 5800
5865 5863 5860 5857 5853 5849 5844 5839 5835 5831 5828 5825 5822 5819 5817 5816 5814 5812 5811 5810 5808 5806 5805 5803 5802 5801 5799 5799 5798 5797 5797 5797 5797 5796 5795 5794 5794 5793 5794 5793 5793 5792 5792
5858 5856 5853 5850 5845 5840 5836 5831 5827 5823 5820 5816 5813 5811 5808 5806 5805 5803 5801 5800 5798 5797 5795 5793 5791 5790 5789 5788 5787 5787 5786 5786 5786 5785 5785 5785 5785 5785 5785 5785 5785 5784 5784
5850 5848 5844 5840 5836 5831 5827 5822 5819 5815 5811 5807 5804 5801 5799 5797 5795 5793 5791 5790 5788 5786 5784 5782 5781 5779 5778 5777 5776 5775 5775 5774 5774 5774 5774 5774 5775 5775 5776 5776 5776 5776 5776
5842 5838 5835 5831 5827 5822 5818 5813 5810 5806 5802 5798 5795 5791 5789 5786 5784 5782 5780 5779 5777 5775 5773 5771 5770 5768 5767 5765 5764 5763 5762 5762 5762 5763 5763 5763 5765 5765 5766 5767 5768 5768 5768
5833 5830 5826 5822 5818 5814 5809 5805 5801 5796 5792 5789 5785 5781 5778 5775 5773 5771 5769 5767 5765 5763 5762 5760 5758 5756 5755 5753 5752 5751 5750 5751 5751 5752 5752 5753 5754 5756 5757 5758 5759 5760 5760
5826 5822 5819 5815 5812 5807 5802 5797 5793 5788 5783 5779 5775 5771 5768 5765 5762 5760 5758 5756 5753 5751 5749 5748 5746 5744 5742 5741 5740 5740 5739 5739 5740 5740 5741 5742 5744 5746 5748 5749 5750 5751 5752
5820 5817 5813 5809 5805 5800 5795 5790 5785 5780 5775 5770 5766 5762 5758 5755 5752 5749 5747 5745 5742 5740 5738 5736 5734 5732 5731 5729 5729 5728 5728 5728 5729 5731 5732 5733 5735 5737 5740 5741 5742 5744 5745
5813 5809 5805 5801 5797 5793 5788 5783 5777 5772 5767 5763 5758 5753 5749 5746 5743 5740 5737 5734 5732 5729 5727 5725 5723 5721 5719 5719 5718 5718 5718 5718 5720 5721 5722 5725 5727 5730 5732 5734 5736 5738 5739
5806 5801 5797 5793 5789 5785 5780 5775 5770 5765 5760 5755 5750 5746 5741 5737 5734 5731 5728 5725 5722 5720 5717 5715 5713 5711 5710 5709 5709 5709 5709 5710 5711 5713 5715 5717 5720 5722 5725 5727 5729 5731 5733
5797 5792 5788 5784 5780 5776 5771 5767 5762 5757 5752 5747 5743 5738 5734 5730 5726 5722 5719 5717 5714 5712 5709 5707 5705 5703 5702 5701 5701 5701 5702 5703 5704 5706 5708 5711 5713 5716 5718 5721 5723 5725 5726
5787 5782 5778 5773 5769 5765 5761 5757 5752 5748 5743 5739 5735 5730 5726 5722 5719 5715 5712 5709 5707 5705 5703 5700 5698 5696 5695 5695 5695 5695 5696 5697 5699 5701 5703 5705 5707 5710 5712 5715 5717 5719 5720
5776 5771 5767 5762 5757 5753 5749 5745 5741 5737 5734 5730 5726 5722 5718 5715 5711 5708 5705 5702 5700 5698 5697 5695 5693 5691 5690 5689 5689 5690 5691 5692 5693 5695 5697 5699 5702 5704 5707 5710 5712 5714 5715
5763 5758 5753 5748 5744 5740 5736 5733 5729 5726 5723 5720 5717 5713 5710 5707 5704 5701 5698 5696 5694 5693 5691 5689 5688 5687 5686 5685 5685 5685 5686 5687 5688 5690 5693 5695 5698 5700 5703 5705 5707 5709 5710
5748 5743 5738 5733 5729 5725 5722 5719 5716 5714 5711 5709 5707 5704 5702 5699 5696 5694 5692 5690 5689 5688 5687 5685 5684 5683 5682 5682 5682 5682 5683 5684 5686 5688 5690 5692 5694 5697 5699 5702 5703 5705 5706
5732 5726 5721 5717 5713 5709 5706 5704 5702 5700 5698 5697 5695 5693 5692 5690 5688 5687 5686 5685 5684 5683 5682 5682 5681 5680 5680 5679 5679 5680 5681 5682 5684 5686 5687 5690 5692 5695 5697 5698 5700 5701 5702
5714 5709 5703 5698 5694 5690 5687 5685 5685 5684 5683 5683 5683 5682 5681 5681 5680 5679 5679 5679 5678 5678 5678 5678 5678 5677 5677 5677 5678 5678 5679 5680 5682 5684 5686 5688 5690 5692 5694 5696 5697 5698 5699
5693 5686 5681 5676 5672 5668 5666 5665 5666 5666 5667 5668 5669 5669 5670 5670 5670 5671 5671 5672 5672 5672 5673 5674 5674 5674 5675 5675 5676 5677 5677 5679 5681 5683 5685 5687 5689 5690 5692 5693 5694 5695 5695
5670 5662 5657 5652 5647 5643 5642 5643 5644 5646 5648 5651 5653 5655 5657 5658 5660 5661 5663 5665 5666 5667 5668 5669 5670 5671 5672 5673 5674 5675 5676 5678 5679 5681 5683 5685 5687 5688 5689 5690 5691 5692 5692
5647 5640 5634 5630 5626 5621 5619 5620 5622 5625 5628 5632 5636 5640 5643 5646 5649 5652 5654 5657 5659 5661 5662 5664 5666 5667 5669 5671 5672 5673 5674 5676 5678 5680 5681 5683 5684 5685 5687 5687 5688 5688 5688
5626 5619 5613 5608 5605 5601 5598 5598 5600 5604 5609 5614 5619 5624 5630 5634 5638 5641 5645 5649 5652 5654 5657 5659 5661 5663 5666 5668 5669 5671 5672 5674 5676 5678 5679 5681 5682 5682 5683 5684 5685 5684 5684
5609 5602 5595 5590 5586 5582 5579 5579 5580 5584 5589 5595 5602 5608 5615 5621 5626 5631 5636 5640 5644 5648 5651 5654 5656 5659 5662 5664 5666 5668 5670 5672 5673 5675 5676 5678 5679 5679 5680 5681 5681 5680 5680
5593 5587 5580 5574 5569 5565 5562 5561 5562 5566 5572 5578 5586 5593 5600 5608 5615 5621 5626 5631 5636 5640 5644 5648 5651 5654 5657 5660 5663 5665 5667 5669 5670 5672 5673 5674 5675 5676 5676 5676 5677 5676 5676